Regional Weather Roundup
Issued by NWS

Home | Current Version | Previous Version | Graphics & Text | Print | Product List | Glossary Off
Versions: 1 2 3 4 5 6 7 8 9 10 11 12 13 14 15 16 17 18 19 20 21 22 23 24 25 26 27 28 29 30 31 32 33 34 35 36 37 38 39 40 41 42 43 44 45 46 47 48 49 50

000
ASUS43 KDMX 310908
RWRIA

WEATHER ROUNDUP FOR IOWA
NATIONAL WEATHER SERVICE DES MOINES IA
400 AM CDT TUE MAY 31 2016

NOTE: "FAIR" INDICATES FEW OR NO CLOUDS BELOW 12,000 FEET WITH NO
SIGNIFICANT WEATHER AND/OR OBSTRUCTIONS TO VISIBILITY.

* - THESE STATIONS ARE NOT NWS STATIONS...THUS NOT UNDER NWS
QUALITY CONTROL.  THEY ALSO DO NOT REPORT WEATHER SUCH
AS PRECIPITATION OR FOG.

IAZ001>003-012>014-020>022-031>034-043>046-311000-
   NORTHWEST IOWA

CITY           SKY/WX    TMP DP  RH WIND       PRES   REMARKS
CARROLL *      MOCLDY    68  63  83 S7        29.89R
CHEROKEE *     DRIZZLE   63  63 100 W3        29.86F
DENISON *      MOCLDY    68  63  83 SW10      29.84F
LE MARS *      CLOUDY    63  61  94 NE3       29.84F
ORANGE CITY *  DRIZZLE   63  59  88 CALM      29.85F
SHELDON *      CLOUDY    61  61 100 CALM      29.83F
SIOUX CITY     CLOUDY    62  59  90 SW6       29.86F
SPENCER        LGT RAIN  63  58  83 S3        29.88S
STORM LAKE *   CLOUDY    64  61  88 S6        29.88R
$$

IAZ055>058-069>071-079>083-090>094-311000-
   SOUTHWEST IOWA

CITY           SKY/WX    TMP DP  RH WIND       PRES   REMARKS
ATLANTIC *     MOCLDY    66  63  88 S10       29.89F
AUDUBON *      LGT RAIN  66  63  88 S9G16     29.90S
CLARINDA *       N/A     64  61  88 MISG      29.93R
COUNCIL BLFS * CLEAR     66  63  88 S10       29.87F
CRESTON *      CLEAR     64  61  88 SW10      29.92F
HARLAN  *      PTCLDY    66  63  88 S7        29.91F
LAMONI         CLOUDY    60  58  92 S8        29.93S
RED OAK *      MOCLDY    64  63  94 S8        29.90S
SHENANDOAH *   PTCLDY    66  63  88 S10       29.90F
$$

IAZ047>049-059>061-072>074-084-311000-
   CENTRAL IOWA

CITY           SKY/WX    TMP DP  RH WIND       PRES   REMARKS
AMES           CLOUDY    63  61  93 SE7       29.91F
ANKENY *       CLEAR     66  61  82 VRB3      29.92S
BOONE *        CLOUDY    64  61  88 SE14      29.89F
CHARITON *     CLEAR     61  59  94 SE6       29.92F
DES MOINES     CLOUDY    67  59  75 SE10      29.91F
GRINNELL*      MOCLDY    63  59  88 SE7       29.94F
KNOXVILLE *    CLEAR     63  59  88 SE5       29.92F
MARSHALLTOWN   CLOUDY    63  59  87 SE10      29.92F
NEWTON *       CLOUDY    64  63  94 SE8       29.93S
PELLA *        CLOUDY    63  59  88 CALM      29.94F
PERRY *        CLOUDY    66  63  88 SE7       29.89F
$$

IAZ004>006-015-016-023>025-035-036-311000-
   NORTH CENTRAL IOWA

CITY           SKY/WX    TMP DP  RH WIND       PRES   REMARKS
ALGONA *       LGT RAIN  63  61  94 S12       29.88S
CLARION *      PTCLDY    63  61  94 SE14      29.89F
ESTHERVILLE    LGT RAIN  61  59  93 SW15G26   29.89R
FORT DODGE *   CLOUDY    63  57  82 SE9       29.89F
MASON CITY     MOCLDY    62  59  90 S18G24    29.90
FOREST CITY *  CLEAR     61  59  94 SE14      29.88F
WEBSTER CITY * MOCLDY    63  61  94 SE16      29.88F
IOWA FALLS *     N/A     63  59  88 SE10      29.92S
$$

IAZ007>011-017>019-026>030-037>042-050>054-066-311000-
   NORTHEAST IOWA

CITY           SKY/WX    TMP DP  RH WIND       PRES   REMARKS
CEDAR RAPIDS   CLOUDY    61  60  97 E5        29.93F
CHARLES CITY * CLOUDY    63  61  94 SE12      29.92S
CLINTON *      CLEAR     65  60  84 NE9       29.95F
DECORAH *      CLEAR     63  59  88 SE8       29.92S
DUBUQUE        PTCLDY    62  59  90 NE10      29.96F
MONTICELLO *   CLEAR     63  59  88 CALM      29.94F
OELWEIN *      CLOUDY    64  59  82 SE10      29.93F
WATERLOO       MOCLDY    62  58  86 SE7       29.91F
$$

IAZ064-065-067-068-078-311000-
   EAST CENTRAL IOWA

CITY           SKY/WX    TMP DP  RH WIND       PRES   REMARKS
DAVENPORT      PTCLDY    65  61  87 NE6       29.95F
IOWA CITY      CLEAR     64  59  83 SE3       29.95F
MT. PLEASANT * MOCLDY    66  66 100 CALM      29.96F
MUSCATINE *    CLEAR     64  63  94 CALM      29.94F
QUAD CITIES    CLOUDY    68  63  84 CALM      29.94S
$$

IAZ062-063-075>077-085>089-095>099-311000-
   SOUTHEAST IOWA

CITY           SKY/WX    TMP DP  RH WIND       PRES   REMARKS
BURLINGTON     PTCLDY    65  63  93 SW6       29.95F
FAIRFIELD *      N/A    N/A N/A N/A MISG        N/A
FORT MADISON * MOCLDY    66  61  82 CALM      29.97F
KEOKUK *       PTCLDY    64  63  94 CALM      29.96F
OSKALOOSA *      N/A     61  57  88 SE5       29.94F
OTTUMWA        CLEAR     60  58  92 SE6       29.94F
WASHINGTON *   CLEAR     63 N/A N/A E5        29.95F
$$

ABBREVIATIONS USED IN REMARKS
   TC - TEMPERATURES IN CELSIUS
  WCI - WIND CHILL INDEX
   HX - HEAT INDEX
  VSB - VISIBILITY
$$





USA.gov is the U.S. government's official web portal to all federal, state and local government web resources and services.